Wind_Speed
11 11 11 12 12 12 12 12 13 14 14 15 15 16 17 18 19 19 19 19 19 19 19 15 11 6 3 2 2 6 10 11 10 8 7 9 9 11 7 12 14 3 11 14 13 7 12
10 10 10 10 11 12 12 13 13 14 15 16 17 18 19 20 21 21 20 19 19 20 15 10 7 3 0 2 3 8 11 11 10 6 5 7 5 8 9 13 7 10 15 17 3 11 10
8 9 9 10 10 11 11 13 14 15 16 18 19 20 20 20 22 23 21 20 20 16 13 9 4 1 0 2 4 8 10 10 8 6 5 6 6 3 9 8 5 11 7 6 9 12 2
7 8 9 9 10 11 12 13 14 15 16 18 19 20 21 23 24 22 22 22 18 14 8 7 2 2 2 3 5 8 6 9 12 5 4 7 5 7 5 12 7 4 1 6 10 10 10
7 7 8 10 11 12 12 13 14 15 16 17 19 21 23 26 26 21 23 20 15 8 13 6 5 4 3 3 5 10 7 10 6 6 7 5 4 4 9 6 5 7 6 8 5 11 10
7 7 8 10 11 12 13 14 15 16 17 19 21 22 24 27 23 24 23 14 13 7 16 5 8 2 2 3 10 4 10 9 3 5 6 2 2 3 5 6 4 7 6 5 6 4 11
7 8 9 9 10 11 12 13 15 17 18 19 21 24 25 27 22 25 23 14 12 3 8 4 5 2 3 9 4 6 12 7 5 4 4 1 2 5 8 5 7 10 6 4 4 4 5
7 8 8 9 9 10 11 13 14 16 19 21 22 22 24 26 20 23 22 17 9 6 6 7 6 5 2 8 2 6 11 5 5 5 4 2 4 5 7 8 8 4 5 6 4 2 4
6 7 8 9 10 11 12 14 15 17 19 22 23 23 22 26 17 26 22 21 15 9 2 1 2 3 3 5 2 5 10 4 4 5 5 3 3 7 9 5 11 6 4 3 4 6 8
7 8 8 9 10 12 13 15 16 19 22 23 24 22 23 23 15 22 18 22 16 6 2 3 2 3 6 6 1 6 8 4 3 4 6 2 4 6 9 6 8 6 6 6 6 6 2
12 12 11 12 12 13 14 15 16 19 20 22 25 22 21 22 19 18 19 20 12 2 3 3 2 3 8 3 8 3 7 3 5 6 3 2 4 4 6 4 5 5 6 6 6 7 6
15 14 15 15 15 14 16 18 18 17 19 22 23 22 22 21 22 20 20 19 3 1 2 2 1 3 5 2 1 7 3 3 3 3 6 2 2 1 3 9 5 9 5 8 7 3 2
19 18 17 18 19 19 16 18 17 18 20 21 21 22 23 21 18 15 19 8 3 4 2 2 3 5 5 2 1 3 3 4 4 5 5 4 3 3 4 7 2 9 6 3 3 1 3
24 22 20 20 18 19 18 19 19 19 20 21 22 23 22 19 13 12 17 2 4 2 5 1 3 8 3 5 2 3 4 2 5 5 5 3 4 2 5 3 3 5 1 2 4 3 4
25 24 24 20 18 19 17 17 19 20 21 23 20 21 23 16 10 11 7 2 2 4 2 7 8 3 4 4 2 3 3 2 4 6 3 4 4 3 3 2 3 6 4 1 4 5 3
23 22 21 20 21 21 22 21 19 19 18 18 17 19 14 11 10 13 2 2 2 2 2 2 4 2 5 7 6 2 1 2 4 3 3 1 5 2 3 1 4 2 2 2 2 4 4
18 19 20 21 22 23 24 25 22 20 18 16 13 9 6 9 12 3 2 1 1 2 1 2 3 5 4 6 3 4 2 2 1 4 2 1 4 4 1 4 1 1 1 2 1 1 2
16 17 17 18 18 20 20 20 19 16 17 10 5 4 5 12 4 2 3 2 2 1 2 3 2 4 4 5 4 4 3 3 3 0 2 1 2 3 4 3 3 2 3 2 1 2 3
16 16 16 16 17 16 15 15 15 15 12 10 4 8 9 5 2 2 2 1 3 3 4 3 3 4 3 3 4 4 2 2 2 3 1 2 2 4 1 2 1 3 4 4 3 3 5
16 17 17 16 16 16 15 13 13 11 10 9 3 2 3 3 5 1 3 4 2 2 3 3 4 1 3 4 6 4 2 3 4 1 0 1 4 6 5 6 1 4 3 5 5 3 4
17 17 17 17 16 14 15 14 14 12 11 8 6 5 3 2 4 4 3 2 3 3 4 4 4 7 5 4 2 5 6 4 6 4 2 1 5 7 8 9 7 9 12 10 9 9 6
18 18 18 18 16 13 12 14 15 12 14 14 4 4 3 3 2 1 4 4 5 3 2 5 6 6 6 7 6 3 2 4 5 5 4 4 4 3 5 11 12 12 14 14 14 13 10
20 19 18 19 18 15 12 14 16 13 13 12 13 11 3 4 3 1 4 5 4 1 9 13 5 6 7 7 10 8 9 10 6 3 6 4 3 3 4 1 6 9 12 5 5 4 2
23 22 20 19 18 15 14 16 17 15 16 21 18 12 7 3 5 5 4 4 4 8 4 8 7 5 4 6 9 11 12 15 13 12 12 7 3 2 4 5 5 1 4 2 4 6 6
25 24 23 20 20 19 17 19 18 16 16 20 23 18 6 3 9 7 13 5 4 7 7 12 16 12 8 4 4 6 4 2 3 1 4 6 5 3 3 4 7 3 1 2 1 3 4
28 27 25 24 22 22 20 20 20 17 17 21 26 23 15 3 9 13 3 9 5 4 3 9 10 8 5 5 2 4 4 3 2 2 1 3 5 4 3 4 5 3 3 4 3 2 8
31 29 28 26 24 23 24 21 22 19 18 23 26 27 21 8 14 14 7 6 9 6 2 2 3 5 6 4 3 4 4 2 4 4 5 3 1 8 7 4 2 3 2 2 2 2 8
31 30 29 28 27 25 25 25 22 25 20 26 27 27 29 13 18 20 21 17 10 10 5 6 2 6 6 4 3 3 4 5 2 3 5 6 5 3 3 4 8 2 1 2 5 7 6
31 30 29 28 28 27 26 27 25 26 28 25 32 28 32 25 11 17 25 26 24 17 14 15 5 5 8 4 3 2 2 2 4 3 3 4 5 2 2 1 6 10 13 8 6 7 3
Wind_Direction
58 54 47 44 39 36 32 29 24 21 17 14 9 4 358 354 349 344 342 339 336 332 326 319 314 296 315 342 330 327 335 346 349 358 360 348 346 355 356 334 330 346 344 322 303 337 314
51 47 42 37 32 28 23 21 18 14 11 10 6 3 360 355 349 344 342 339 335 333 333 328 320 286 287 283 281 312 337 344 344 337 329 340 328 326 289 313 300 326 305 286 340 23 357
36 34 31 28 27 24 19 16 12 12 10 8 8 5 2 359 353 347 346 342 338 339 340 336 337 188 240 284 283 322 335 337 338 316 326 302 315 341 312 291 296 281 294 302 86 24 5
28 23 20 19 18 17 16 16 12 12 12 11 6 6 4 359 352 347 346 342 340 347 28 2 25 105 10 289 309 340 339 325 342 339 324 320 319 300 236 287 256 225 167 39 62 19 342
19 16 11 11 13 10 11 12 13 14 12 10 9 3 0 357 353 357 352 347 351 31 5 27 72 88 100 352 347 325 336 336 313 341 349 344 328 282 312 325 353 23 337 346 55 11 53
9 7 7 5 8 8 7 9 9 11 8 7 6 1 358 358 359 2 3 4 3 20 16 42 51 7 32 325 327 337 343 348 351 311 308 349 275 281 5 9 359 321 331 324 56 324 76
6 8 10 7 8 8 6 7 6 7 5 3 360 360 356 356 358 2 3 18 13 18 10 349 319 299 309 336 351 347 350 358 339 268 342 129 14 23 345 344 296 282 299 296 108 282 86
4 6 10 10 6 7 5 5 5 4 2 360 356 354 354 354 355 358 3 38 26 321 322 333 32 53 9 359 355 349 353 305 300 302 317 206 69 4 301 285 326 313 333 20 164 258 321
338 347 353 355 354 358 359 0 360 358 358 354 349 347 353 351 353 356 5 13 1 349 247 359 22 24 344 357 348 327 353 321 304 303 360 322 30 325 309 17 350 341 36 342 285 312 265
307 318 325 328 334 340 345 348 350 351 351 351 351 349 351 358 354 355 348 351 349 350 217 36 57 5 353 338 277 329 359 358 246 333 335 38 357 346 330 10 3 309 20 296 281 314 306
292 295 304 309 317 326 330 334 339 343 344 347 350 351 351 355 350 351 342 341 343 82 93 353 31 342 338 8 324 319 357 359 347 329 313 288 3 349 342 359 332 289 312 282 294 290 308
279 282 292 295 300 309 317 321 328 334 335 341 343 348 349 349 344 344 338 338 7 25 316 28 278 337 356 131 58 323 315 342 288 282 224 185 158 266 311 295 248 280 286 246 238 235 357
272 271 277 283 294 296 300 310 317 323 328 333 335 342 344 341 336 341 339 346 8 76 153 30 321 345 333 341 243 30 331 29 20 5 344 327 155 121 314 329 313 357 1 323 341 28 222
272 274 278 282 287 284 296 298 307 313 321 321 327 335 336 334 336 344 343 297 31 83 43 91 270 299 285 4 152 300 282 195 71 350 304 355 331 28 355 41 308 307 350 106 301 356 295
271 271 273 273 276 279 291 292 300 308 314 313 319 331 335 344 344 347 356 352 1 26 1 337 292 257 172 183 222 317 137 58 57 17 39 342 298 151 65 341 10 320 38 22 292 262 294
274 274 274 268 269 275 283 285 290 303 308 307 317 332 319 338 341 339 315 269 64 54 332 258 294 11 332 358 336 274 190 62 122 28 359 29 308 360 133 184 239 298 312 327 288 323 309
275 276 274 273 274 274 276 280 281 285 299 302 316 330 304 335 334 318 249 328 25 127 192 254 314 288 291 329 328 288 342 96 59 138 301 353 182 278 8 198 33 237 247 264 191 209 290
279 278 279 281 282 281 281 278 277 281 287 296 311 285 286 319 335 203 298 17 319 255 228 235 251 274 272 311 280 277 310 94 123 60 297 96 264 271 265 46 15 347 325 314 281 357 287
283 281 279 277 281 285 285 284 276 266 270 285 281 270 273 282 264 217 121 112 275 232 231 209 256 226 25 289 294 249 354 122 192 245 347 98 263 314 173 49 41 283 235 226 328 39 241
285 285 285 281 276 279 282 283 281 258 264 248 255 286 271 221 237 160 296 287 233 250 280 271 289 337 259 255 234 262 275 162 193 287 34 22 254 213 232 271 348 255 228 218 219 209 269
287 289 285 279 275 274 276 279 275 256 248 229 223 248 222 246 209 210 89 16 228 240 221 234 250 230 228 265 255 250 237 209 187 199 173 255 261 252 264 282 289 268 267 252 217 212 228
283 287 290 288 275 268 278 274 273 256 234 229 226 235 232 274 249 206 165 221 221 265 173 236 234 297 235 239 238 307 233 184 226 166 183 187 271 277 273 262 259 264 261 248 248 247 253
278 278 282 283 276 258 266 273 261 253 240 238 240 235 227 192 177 190 223 219 230 293 235 253 333 303 279 268 285 288 260 277 266 207 193 186 231 297 262 266 295 270 268 248 208 81 93
276 273 272 274 271 257 251 270 264 254 238 242 246 234 197 236 216 207 231 234 237 249 287 310 307 273 307 311 309 284 258 249 250 244 217 203 215 235 284 319 249 98 8 310 59 84 97
274 273 270 268 264 254 245 252 267 256 247 240 247 236 237 235 220 253 236 225 272 272 249 252 262 250 283 333 332 308 263 269 230 39 251 236 208 263 244 217 295 204 50 24 10 105 60
270 270 267 264 262 253 244 244 257 256 246 240 246 239 232 186 222 241 199 216 219 218 257 226 242 234 177 57 210 237 239 273 214 164 170 264 235 212 200 239 259 61 82 14 1 218 64
266 266 265 261 258 255 244 242 247 252 244 243 247 243 229 225 243 227 194 195 189 191 192 292 212 201 202 182 207 221 247 166 246 220 165 135 198 226 234 256 256 92 60 345 140 173 87
263 262 261 261 257 253 246 238 245 243 249 237 244 242 233 237 247 235 231 210 199 201 179 165 119 214 168 206 207 212 242 208 276 230 173 163 187 202 200 246 258 84 98 205 111 95 99
260 259 259 261 260 256 251 238 236 240 242 248 239 243 240 234 257 233 234 238 238 237 213 186 204 174 192 205 201 257 233 239 228 253 17 200 215 197 207 236 91 67 97 108 112 126 109
Height
1579 1578 1577 1576 1575 1575 1574 1572 1571 1570 1568 1566 1564 1561 1559 1556 1553 1550 1547 1543 1541 1538 1535 1532 1531 1531 1532 1533 1533 1532 1530 1528 1526 1525 1525 1524 1523 1522 1523 1520 1517 1514 1515 1514 1513 1513 1512
1580 1580 1579 1578 1577 1576 1575 1574 1572 1570 1568 1566 1564 1562 1559 1556 1552 1548 1545 1542 1539 1535 1533 1531 1530 1530 1532 1534 1532 1531 1530 1528 1526 1525 1525 1525 1524 1524 1522 1520 1517 1514 1512 1511 1512 1513 1510
1581 1581 1580 1579 1579 1578 1576 1575 1573 1571 1569 1567 1565 1562 1559 1555 1552 1547 1544 1540 1536 1533 1531 1530 1529 1530 1532 1534 1532 1531 1529 1528 1526 1525 1525 1525 1524 1524 1521 1516 1514 1512 1513 1506 1511 1511 1510
1583 1582 1581 1580 1580 1579 1577 1576 1574 1572 1570 1568 1565 1562 1559 1556 1551 1547 1543 1539 1535 1532 1531 1530 1529 1530 1532 1532 1532 1530 1529 1529 1526 1525 1525 1524 1523 1522 1520 1515 1510 1511 1505 1514 1513 1510 1508
1584 1583 1582 1582 1581 1580 1579 1577 1575 1573 1571 1568 1566 1563 1559 1555 1550 1546 1542 1538 1534 1532 1532 1529 1530 1530 1533 1532 1532 1530 1529 1528 1526 1525 1524 1523 1523 1522 1518 1517 1515 1513 1524 1516 1511 1512 1512
1585 1584 1583 1583 1582 1581 1580 1578 1576 1574 1572 1569 1566 1562 1559 1554 1550 1546 1542 1537 1534 1534 1533 1532 1532 1535 1534 1534 1531 1530 1529 1527 1526 1526 1524 1523 1523 1522 1521 1524 1535 1528 1524 1517 1518 1515 1514
1585 1585 1584 1583 1583 1581 1580 1578 1576 1574 1572 1569 1566 1563 1558 1554 1550 1546 1542 1537 1538 1537 1535 1536 1535 1534 1534 1533 1531 1530 1529 1527 1526 1526 1525 1522 1525 1531 1526 1523 1522 1519 1518 1516 1513 1511 1513
1586 1585 1585 1583 1582 1581 1580 1578 1576 1574 1572 1569 1566 1563 1559 1554 1550 1547 1543 1540 1543 1544 1538 1536 1535 1534 1533 1532 1532 1531 1530 1530 1527 1525 1522 1525 1528 1525 1521 1518 1519 1511 1515 1518 1512 1509 1511
1586 1586 1585 1584 1583 1582 1580 1578 1577 1574 1572 1569 1566 1562 1559 1554 1550 1546 1543 1543 1542 1540 1540 1537 1536 1537 1536 1535 1533 1532 1530 1529 1527 1525 1524 1525 1526 1523 1520 1517 1521 1514 1522 1521 1519 1511 1507
1585 1585 1584 1584 1583 1582 1580 1579 1577 1575 1572 1568 1565 1561 1558 1555 1552 1548 1544 1543 1540 1539 1539 1541 1538 1537 1537 1536 1535 1533 1531 1531 1526 1527 1526 1525 1523 1524 1522 1521 1523 1519 1519 1519 1515 1515 1516
1584 1584 1583 1583 1582 1581 1580 1578 1576 1574 1571 1568 1565 1562 1558 1554 1552 1549 1547 1542 1540 1540 1550 1541 1538 1537 1536 1537 1536 1534 1532 1531 1530 1530 1529 1529 1527 1527 1524 1523 1521 1519 1515 1519 1516 1516 1512
1581 1581 1581 1580 1580 1579 1578 1577 1575 1573 1571 1569 1566 1562 1559 1556 1552 1550 1546 1541 1540 1544 1568 1542 1539 1537 1535 1533 1534 1534 1532 1531 1529 1528 1525 1524 1526 1526 1526 1520 1518 1516 1511 1511 1510 1514 1530
1577 1577 1578 1578 1577 1576 1576 1575 1574 1572 1570 1567 1565 1562 1559 1555 1553 1549 1545 1542 1545 1551 1540 1543 1543 1539 1537 1534 1533 1534 1533 1534 1536 1542 1534 1526 1527 1528 1526 1523 1517 1520 1519 1532 1531 1528 1526
1573 1574 1574 1574 1574 1573 1572 1572 1572 1570 1568 1566 1563 1561 1558 1555 1552 1549 1546 1545 1553 1543 1544 1544 1542 1540 1540 1538 1534 1532 1532 1533 1535 1536 1540 1542 1545 1529 1529 1531 1533 1530 1527 1544 1535 1533 1525
1569 1569 1569 1570 1570 1570 1569 1569 1569 1568 1566 1564 1561 1560 1556 1554 1552 1550 1548 1549 1551 1549 1548 1547 1539 1538 1534 1535 1535 1532 1530 1533 1537 1537 1542 1540 1534 1529 1529 1529 1531 1528 1536 1530 1535 1518 1526
1564 1564 1565 1565 1566 1566 1566 1566 1566 1565 1564 1562 1560 1557 1555 1554 1553 1551 1550 1548 1546 1548 1549 1548 1548 1542 1542 1539 1539 1533 1530 1535 1537 1538 1537 1538 1548 1528 1527 1528 1528 1529 1529 1535 1537 1533 1523
1560 1560 1561 1561 1562 1562 1562 1562 1562 1562 1561 1560 1559 1557 1553 1553 1553 1551 1552 1548 1547 1548 1548 1548 1545 1543 1540 1541 1540 1539 1533 1540 1537 1537 1537 1536 1538 1534 1531 1529 1527 1530 1529 1528 1530 1533 1536
1556 1556 1556 1557 1557 1557 1557 1558 1558 1559 1560 1559 1559 1559 1553 1551 1553 1549 1550 1547 1550 1548 1548 1548 1547 1546 1543 1540 1540 1538 1536 1535 1537 1537 1536 1537 1537 1541 1530 1528 1527 1528 1528 1530 1538 1533 1535
1552 1552 1552 1552 1553 1553 1554 1554 1554 1556 1556 1557 1557 1555 1552 1551 1552 1548 1549 1550 1550 1550 1549 1549 1546 1545 1543 1543 1545 1536 1535 1538 1539 1539 1537 1539 1540 1544 1530 1533 1532 1532 1528 1528 1531 1536 1539
1548 1548 1549 1549 1549 1550 1550 1551 1551 1552 1554 1556 1558 1554 1551 1549 1548 1549 1548 1546 1547 1548 1549 1548 1546 1545 1544 1543 1541 1539 1537 1538 1539 1541 1541 1540 1538 1535 1538 1527 1529 1530 1528 1527 1530 1542 1531
1544 1545 1545 1545 1545 1546 1547 1548 1549 1550 1552 1554 1555 1552 1550 1549 1549 1546 1547 1547 1546 1547 1547 1547 1543 1542 1543 1543 1537 1540 1536 1536 1536 1538 1540 1542 1541 1534 1529 1525 1526 1526 1525 1524 1529 1528 1531
1539 1540 1541 1541 1541 1542 1543 1545 1545 1546 1549 1551 1551 1551 1551 1549 1547 1548 1548 1546 1544 1543 1545 1544 1545 1540 1539 1541 1537 1537 1536 1536 1535 1537 1537 1538 1539 1533 1532 1523 1522 1522 1514 1513 1513 1513 1515
1534 1535 1536 1537 1538 1539 1540 1541 1541 1543 1545 1547 1547 1549 1550 1548 1547 1548 1544 1541 1540 1541 1539 1539 1541 1541 1537 1537 1536 1536 1536 1534 1532 1532 1534 1536 1536 1535 1529 1520 1519 1518 1506 1508 1507 1513 1514
1529 1530 1530 1531 1532 1534 1536 1537 1537 1539 1541 1543 1543 1546 1546 1544 1545 1543 1541 1540 1540 1541 1540 1539 1540 1542 1540 1537 1536 1533 1532 1531 1531 1528 1527 1532 1535 1536 1533 1526 1528 1513 1514 1512 1508 1515 1520
1523 1524 1525 1525 1527 1529 1531 1532 1532 1534 1536 1538 1539 1541 1541 1540 1539 1537 1539 1539 1539 1540 1541 1538 1537 1538 1539 1538 1537 1533 1530 1529 1525 1527 1527 1527 1530 1536 1533 1526 1509 1518 1517 1516 1513 1520 1522
1516 1517 1518 1520 1521 1523 1525 1527 1527 1529 1531 1532 1533 1535 1537 1536 1534 1532 1533 1535 1537 1536 1536 1534 1534 1534 1536 1537 1545 1542 1532 1520 1522 1529 1529 1530 1530 1534 1526 1526 1514 1517 1522 1522 1520 1522 1529
1508 1509 1511 1512 1514 1515 1518 1521 1523 1523 1525 1526 1527 1530 1531 1529 1525 1528 1526 1526 1528 1530 1531 1532 1532 1534 1533 1538 1538 1536 1531 1521 1525 1520 1528 1531 1534 1530 1527 1523 1513 1521 1523 1523 1523 1530 1531
1498 1500 1503 1505 1506 1507 1509 1513 1516 1518 1520 1519 1520 1524 1524 1521 1516 1518 1520 1520 1521 1522 1524 1527 1530 1530 1532 1533 1529 1526 1524 1520 1519 1512 1516 1521 1527 1527 1526 1523 1515 1523 1525 1525 1531 1531 1532
1490 1492 1494 1496 1499 1500 1502 1504 1509 1512 1513 1514 1513 1517 1518 1516 1513 1510 1510 1513 1515 1516 1519 1522 1520 1520 1522 1524 1524 1521 1521 1520 1516 1517 1510 1518 1513 1512 1516 1517 1527 1526 1527 1529 1530 1531 1532